Current weather by "City, St" or "zip code"  
 
Advertise Here

Current Conditions: Pine Springs, Guadalupe Mountains National Park, TX

Fair


92.0 F

Last Updated on Aug 4 2020, 4:51 pm CDT
Humidity: 21%
Wind Speed: 3.5 G 16.1 mph
Barometer 30.18 in
Dewpoint: 46.0 F
Visibility: 9.00 mi
Precip: --
Heat Index: 88 F
Wind Chill: NA
Current conditions at:

Pine Springs, Guadalupe Mountains National Park, TX (KGDP)

Lat: 31.83111 Lon: 104.80889

Local Radar Image active severe weather and emergency alerts image image weather storm and storm spotter reports image weather observation monitoring service image
Local
Radar
Active
Alerts
Storm Reports Obs
Monitoring

Sign-up For Email & Text Message Weather Alert Notification Services


Advertise Here

Observation History for Pine Springs, Guadalupe Mountains National Park, TX


Time Wind
(mph)
Vis
(mi)
Weather Precip (in) Temperature (F) Relative
Humidity
Wind
Chill
(F)
Heat
Index
(F)
Pressure
Air Dwpt altimeter
(in)
sea level
(mb)
Rmks
4:51 pm CDT 3.5 G 16.1 9.00 Fair -- 92.0 46.0 21% NA 88 30.18 1012.2
3:51 pm CDT SW 13.8 G 26.5 10.00 Fair -- 94.0 46.0 19% NA 90 30.20 1012.4
2:51 pm CDT SW 13.8 G 24.2 9.00 Fair -- 93.0 46.0 20% NA 89 30.22 1013.2
1:51 pm CDT SW 13.8 G 18.4 10.00 Fair -- 90.0 46.9 23% NA 87 30.24 1014.0
12:51 pm CDT SW 13.8 9.00 Fair -- 86.0 50.0 29% NA 84 30.25 1014.6
11:51 am CDT W 15.0 9.00 Mostly Cloudy -- 83.0 50.0 32% NA 81 30.25 1014.8
10:51 am CDT SW 13.8 9.00 Fair -- 80.0 51.1 37% NA 80 30.25 1014.9
9:51 am CDT S 5.8 9.00 Fair -- 78.0 51.1 39% NA NA 30.24 1014.6
8:51 am CDT NW 3.5 9.00 Fair -- 76.0 50.0 40% NA NA 30.23 1014.2
7:51 am CDT W 9.2 9.00 Fair -- 73.0 51.1 46% NA NA 30.24 1014.3
6:51 am CDT N 0.0 10.00 Fair -- 75.0 48.9 40% NA NA 30.23 1013.8
5:51 am CDT NE 8.1 10.00 Fair -- 72.0 51.1 48% NA NA 30.22 1013.4
4:51 am CDT NE 19.6 10.00 Fair -- 71.0 52.0 51% NA NA 30.23 1014.0
3:51 am CDT NE 17.3 G 26.5 10.00 Fair -- 75.0 50.0 42% NA NA 30.25 1014.5
2:51 am CDT N 26.5 10.00 Mostly Cloudy and Windy -- 75.0 50.0 42% NA NA 30.27 1015.1
1:51 am CDT NE 19.6 10.00 Fair -- 75.0 50.0 42% NA NA 30.24 1014.7
12:51 am CDT NE 18.4 10.00 Fair -- 75.0 50.0 42% NA NA 30.25 1015.3
11:51 pm CDT NE 20.7 10.00 Fair and Breezy -- 77.0 51.1 40% NA NA 30.24 1015.2
10:51 pm CDT E 17.3 10.00 Fair -- 78.0 52.0 40% NA NA 30.23 1015.1
9:51 pm CDT E 8.1 10.00 Fair -- 80.0 48.9 34% NA 79 30.22 1015.0
8:51 pm CDT N 0.0 9.00 Fair -- 83.0 48.9 31% NA 81 30.21 1014.7
7:51 pm CDT W 8.1 9.00 Fair -- 86.0 50.0 29% NA 84 30.20 1014.0
6:51 pm CDT SW 9.2 9.00 Fair -- 87.0 48.9 27% NA 84 30.19 1013.6
5:51 pm CDT SW 11.5 G 16.1 9.00 Fair -- 89.0 50.0 26% NA 86 30.21 1014.3

Regional Weather Observation


Carlsbad, Cavern City Air Terminal Airport, NM (KCNM)

Fair
101.0 F

Artesia Municipal Airport, NM (KATS)

Fair
99.0 F

Alamogordo-White, NM (KALM)

Fair
99.0 F

Holloman Air Force Base, NM (KHMN)

Fair
99.0 F

El Paso, El Paso International Airport, TX (KELP)

Partly Cloudy
102.0 F

Pecos, Pecos Municipal Airport, TX (KPEQ)

Fair
103.0 F